Showing default

ESTRELA DU SOL-TELSTAR14, 28137

Orbit data source: Space-Track

ESTRELA DU SOL-TELSTAR14, 28137 is a payload satellite owned by Loral Sky Brazil (US,BR) in GEO that was launched on Sun, 11 Jan 2004 UTC via a ZENIT-3SL launch vehicle from the Sea Launch (SEAL). Payloads include a variety of satellites, spacecraft, and rockets equipped with specific instruments for various scientific and technological missions. These include communications satellites like Starlink; space stations such as the ISS; scientific satellites like the Hubble; Earth observation satellites from companies like Planet Labs, Umbra, and HawkEye 360; GPS; miniature CubeSats for education and research; and military/defense satellites.

Loading next visibility...
ESTRELA DU SOL-TELSTAR14 details
Identifier
28137, 2004-001A
Orbit
GEO
Last TLE update10 hours ago
Origin
Flag of USLoral Sky Brazil (US / USBZ)
Flag of BRLoral Sky Brazil (BR / USBZ)
ManufacturerSS/Loral
MissionNon-operational Commercial Communications
Bus & MotorSSL-1300, R-4D-11-164
Mass4,694 kg wet, ~2,000 kg dry
Launch date (UTC)
2004-01-11 (21 years ago)
Launch vehicle
ZENIT-3SL
Launch site
Sea Launch (SEAL)
Object type
Payload
Rocket body
Debris
Shape & HBRBox + 2 Pan, 31 m
Radar Cross Section40.765 m², Large (>1 m²)

Expand to show TLE details & history

TLE from 10 hours ago
0 ESTRELA DU SOL-TELSTAR14
1 28137U 04001A   24361.15221958  .00000031  00000-0  00000-0 0  9999
2 28137   9.9713  49.0733 0003608 315.9264  44.4813  0.98829935 76263
Epoch: 2024-12-26T03:39Z
Definitive object data (Epoch: 2024-12-26T03:39:11.771Z)
Latitude0.08369°
Longitude-100.43683°
Altitude36,184.306 km
Speed3.061 km/s
True Right ascension03h 17m 59s
True Declination0° 05' 01"
Sunlit
Object was in daylight at TLE epoch
Visualization TLE readout
Latitude5.40992°
Longitude46.58925°
Altitude36,209.718 km
Speed3.059 km/s
Apparent Right ascension13h 07m 37s
Apparent Declination0° 05' 28"
Sunlit
Object is in daylight
Visualization observer readout
Local Sidereal Time12:54:26
Azimuth174.881° S
Elevation49.88°
Doppler factor1
Orbital elements
Apogee altitude36,212.079 km
Perigee altitude36,181.357 km
Semi-major axis42,574.855 km
Eccentricity0.0003608
Inclination9.9713°
RAAN49.0733°
Arg. of periapsis315.9264°
True anomaly44.51028°
Mean anomaly44.4813°
Eccentric anomaly44.49579°
Mean motion0.24707 °/min
BSTARUnknown
Orbital period1457.1 mins
Loading historical data...
28137 neighbors
Authenticating...
Loading maneuver chart data...
Loading historical data...
Loading historical data...
Loading historical data...
Loading historical data...
Loading historical data...
Loading historical data...
Loading historical data...
Other satellites on launch #1 in the year 2004 (2004-01-11 UTC)

ESTRELA DU SOL-TELSTAR14 Visibility forecast

Observer location: undefined°, undefined

Span
Click to sort rows by Start time (UTC) header in descending order
Start Az.
Max El. time (UTC)
Max El. Az.
Max El.
End time (UTC)
End Az.
1440 mins2024-12-26 13:32:44.316Z174.883° S2024-12-27 09:59:44.316Z183.686° SSW39.368°2024-12-27 13:32:44.316Z184.012° SSW
|